KD8TSA Weather Reports


Display with metric or nautical units.
time (UTC)temp
F
wind
direction
speed
MPH
gust
MPH
rain 1hr
in
rain 24hr
in
rain mn
in
humidity
%
barometer
mb
20260508170927 69 195 3.0 5.0 0.00 0.00 0.00 53 1012.3
20260508170425 69 182 2.0 3.0 0.00 0.00 0.00 56 1012.4
20260508165921 68 278 3.0 3.0 0.00 0.00 0.00 57 1012.5
20260508165419 68 219 0.0 0.0 0.00 0.00 0.00 55 1012.6
20260508164915 68 86 2.0 5.0 0.00 0.00 0.00 55 1012.5
20260508164412 68 247 1.0 2.0 0.00 0.00 0.00 58 1012.7
20260508163909 68 356 2.0 3.0 0.00 0.00 0.00 56 1012.8
20260508163407 68 146 2.0 6.0 0.00 0.00 0.00 58 1012.8
20260508162902 67 258 2.0 2.0 0.00 0.00 0.00 56 1013.1
20260508162400 67 287 2.0 3.0 0.00 0.00 0.00 60 1013.1
20260508161857 67 83 3.0 5.0 0.00 0.00 0.00 55 1013.1
20260508161354 68 163 4.0 7.0 0.00 0.00 0.00 55 1012.9
20260508160851 67 102 3.0 5.0 0.00 0.00 0.00 54 1012.8
20260508160350 66 250 1.0 2.0 0.00 0.00 0.00 56 1013.2
20260508155845 66 42 5.0 6.0 0.00 0.00 0.00 54 1013.1
20260508155343 66 96 3.0 3.0 0.00 0.00 0.00 55 1013.4
20260508154840 66 170 2.0 2.0 0.00 0.00 0.00 59 1013.5
20260508154338 66 236 5.0 7.0 0.00 0.00 0.00 58 1013.3
20260508153834 66 148 1.0 1.0 0.00 0.00 0.00 57 1013.5
20260508153331 65 228 2.0 3.0 0.00 0.00 0.00 58 1013.5
20260508152827 64 124 2.0 3.0 0.00 0.00 0.00 57 1013.4
20260508152324 64 244 5.0 7.0 0.00 0.00 0.00 57 1013.7
20260508151820 64 141 0.0 1.0 0.00 0.00 0.00 58 1013.7
20260508151318 65 132 0.0 1.0 0.00 0.00 0.00 59 1013.8
20260508150813 64 274 2.0 2.0 0.00 0.00 0.00 59 1013.6
20260508150310 63 283 2.0 2.0 0.00 0.00 0.00 61 1013.8
20260508145807 63 41 2.0 3.0 0.00 0.00 0.00 58 1014.0
20260508145306 63 195 3.0 5.0 0.00 0.00 0.00 58 1013.8
20260508144800 63 269 0.0 2.0 0.00 0.00 0.00 61 1014.0
20260508144258 62 318 7.0 14.0 0.00 0.00 0.00 59 1013.8
20260508143755 61 123 0.0 0.0 0.00 0.00 0.00 62 1014.0
20260508143252 60 227 4.0 7.0 0.00 0.00 0.00 61 1014.0
20260508142748 59 248 2.0 5.0 0.00 0.00 0.00 63 1013.7
20260508142245 58 177 0.0 2.0 0.00 0.00 0.00 66 1013.9
20260508141742 57 159 3.0 5.0 0.00 0.00 0.00 64 1013.9
20260508141239 58 130 6.0 10.0 0.00 0.00 0.00 62 1013.9
20260508140736 56 252 2.0 3.0 0.00 0.00 0.00 64 1013.8
20260508140233 57 282 4.0 5.0 0.00 0.00 0.00 64 1013.8
20260508135729 57 186 3.0 5.0 0.00 0.00 0.00 63 1014.1
20260508135225 57 302 0.0 1.0 0.00 0.00 0.00 63 1014.1
20260508134721 57 286 1.0 2.0 0.00 0.00 0.00 63 1014.1
20260508134218 57 90 2.0 3.0 0.00 0.00 0.00 62 1014.0
20260508133715 59 169 0.0 1.0 0.00 0.00 0.00 62 1014.1
20260508133213 58 108 1.0 1.0 0.00 0.00 0.00 64 1014.0
20260508132711 57 229 2.0 2.0 0.00 0.00 0.00 64 1013.9
20260508132208 56 142 0.0 0.0 0.00 0.00 0.00 66 1014.1
20260508131703 55 167 0.0 1.0 0.00 0.00 0.00 65 1014.0
20260508131159 54 262 2.0 3.0 0.00 0.00 0.00 68 1014.0
20260508130656 53 186 3.0 3.0 0.00 0.00 0.00 67 1014.3
20260508130153 53 199 1.0 1.0 0.00 0.00 0.00 67 1014.0
20260508125649 54 113 1.0 1.0 0.00 0.00 0.00 65 1014.1
20260508125146 55 198 3.0 3.0 0.00 0.00 0.00 66 1014.1
20260508124644 55 118 3.0 5.0 0.00 0.00 0.00 65 1014.0
20260508124141 54 225 2.0 3.0 0.00 0.00 0.00 67 1014.3
20260508123639 54 168 1.0 1.0 0.00 0.00 0.00 69 1013.8
20260508123137 53 233 1.0 2.0 0.00 0.00 0.00 69 1014.0
20260508122632 52 279 1.0 2.0 0.00 0.00 0.00 70 1013.9
20260508122130 52 228 1.0 2.0 0.00 0.00 0.00 71 1014.1
20260508121628 52 203 2.0 3.0 0.00 0.00 0.00 71 1014.0
20260508121126 51 212 0.0 1.0 0.00 0.00 0.00 72 1014.0
20260508120623 50 157 1.0 1.0 0.00 0.00 0.00 73 1013.7
20260508120121 50 191 0.0 0.0 0.00 0.00 0.00 73 1013.9
20260508115618 50 181 1.0 1.0 0.00 0.00 0.00 73 1013.8
20260508115115 49 178 0.0 0.0 0.00 0.00 0.00 74 1013.8
20260508114612 49 219 0.0 1.0 0.00 0.00 0.00 73 1013.7
20260508114108 48 190 0.0 0.0 0.00 0.00 0.00 73 1013.8
20260508113605 48 174 0.0 0.0 0.00 0.00 0.00 74 1013.9
20260508113104 48 185 1.0 1.0 0.00 0.00 0.00 74 1013.8
20260508112559 48 169 0.0 0.0 0.00 0.00 0.00 75 1013.7
20260508112051 48 201 0.0 0.0 0.00 0.00 0.00 76 1013.8
20260508111548 48 181 0.0 1.0 0.00 0.00 0.00 75 1013.5
20260508111045 47 201 3.0 5.0 0.00 0.00 0.00 75 1013.4
20260508110543 47 208 1.0 1.0 0.00 0.00 0.00 76 1013.3
20260508110039 46 176 0.0 0.0 0.00 0.00 0.00 77 1013.4
20260508105539 46 175 0.0 1.0 0.00 0.00 0.00 77 1013.4
20260508105036 46 129 0.0 0.0 0.00 0.00 0.00 76 1013.4
20260508104534 46 247 2.0 3.0 0.00 0.00 0.00 76 1013.3
20260508104030 45 228 0.0 2.0 0.00 0.00 0.00 76 1013.4
20260508103527 45 159 0.0 0.0 0.00 0.00 0.00 76 1013.5
20260508103025 45 180 1.0 1.0 0.00 0.00 0.00 76 1013.3
20260508102522 45 149 1.0 1.0 0.00 0.00 0.00 76 1013.4
20260508102020 45 156 0.0 0.0 0.00 0.00 0.00 75 1013.3
20260508101517 45 176 0.0 1.0 0.00 0.00 0.00 75 1013.4
20260508101009 45 178 0.0 0.0 0.00 0.00 0.00 75 1013.2
20260508100507 45 165 0.0 0.0 0.00 0.00 0.00 75 1013.2
20260508100003 45 163 1.0 1.0 0.00 0.00 0.00 74 1013.4
20260508095501 46 165 0.0 0.0 0.00 0.00 0.00 74 1013.3
20260508094957 46 196 1.0 1.0 0.00 0.00 0.00 74 1013.3
20260508094454 46 188 0.0 1.0 0.00 0.00 0.00 74 1013.1
20260508093950 46 169 0.0 0.0 0.00 0.00 0.00 74 1013.3
20260508093448 46 188 0.0 0.0 0.00 0.00 0.00 73 1013.3
20260508092946 46 122 0.0 0.0 0.00 0.00 0.00 73 1013.4
20260508092443 46 167 0.0 1.0 0.00 0.00 0.00 73 1013.3
20260508091942 46 180 0.0 0.0 0.00 0.00 0.00 73 1013.3
20260508091438 45 192 2.0 2.0 0.00 0.00 0.00 74 1013.2
20260508090935 45 167 0.0 0.0 0.00 0.00 0.00 74 1013.2
20260508090434 45 182 0.0 1.0 0.00 0.00 0.00 74 1013.2
20260508085929 45 185 0.0 0.0 0.00 0.00 0.00 74 1013.2
20260508085426 45 150 0.0 0.0 0.00 0.00 0.00 73 1013.4
20260508084923 46 187 0.0 0.0 0.00 0.00 0.00 73 1013.2
20260508084420 45 175 0.0 0.0 0.00 0.00 0.00 73 1013.2
20260508083918 45 172 0.0 1.0 0.00 0.00 0.00 73 1013.2
20260508083415 45 164 0.0 0.0 0.00 0.00 0.00 73 1013.1
20260508082914 46 168 0.0 0.0 0.00 0.00 0.00 73 1013.4
20260508082412 46 157 0.0 0.0 0.00 0.00 0.00 73 1013.2
20260508081910 46 161 0.0 0.0 0.00 0.00 0.00 72 1013.3
20260508081406 46 172 1.0 2.0 0.00 0.00 0.00 72 1013.0
20260508080903 46 171 0.0 1.0 0.00 0.00 0.00 72 1013.2
20260508080401 46 138 0.0 0.0 0.00 0.00 0.00 71 1012.9
20260508075857 47 163 0.0 1.0 0.00 0.00 0.00 70 1013.2
20260508075354 47 169 1.0 2.0 0.00 0.00 0.00 70 1013.1
20260508074852 47 181 0.0 1.0 0.00 0.00 0.00 69 1013.1
20260508074349 47 176 0.0 0.0 0.00 0.00 0.00 69 1013.0
20260508073846 47 173 0.0 0.0 0.00 0.00 0.00 69 1013.1
20260508073344 47 160 0.0 0.0 0.00 0.00 0.00 69 1013.3
20260508072840 47 188 0.0 0.0 0.00 0.00 0.00 70 1013.1
20260508072337 47 180 0.0 0.0 0.00 0.00 0.00 70 1013.1
20260508071834 47 165 0.0 1.0 0.00 0.00 0.00 70 1013.3
20260508071332 47 158 0.0 1.0 0.00 0.00 0.00 70 1013.3
20260508070829 47 153 0.0 0.0 0.00 0.00 0.00 71 1013.3
20260508070328 47 158 0.0 1.0 0.00 0.00 0.00 71 1013.3
20260508065825 47 173 0.0 0.0 0.00 0.00 0.00 71 1013.4
20260508065323 47 157 0.0 1.0 0.00 0.00 0.00 71 1013.3
20260508064821 47 168 0.0 0.0 0.00 0.00 0.00 71 1013.3
20260508064318 47 230 1.0 1.0 0.00 0.00 0.00 71 1013.2
20260508063815 47 195 0.0 0.0 0.00 0.00 0.00 72 1013.5
20260508063313 46 189 0.0 1.0 0.00 0.00 0.00 72 1013.4
20260508062810 46 188 1.0 1.0 0.00 0.00 0.00 72 1013.5
20260508062308 46 167 0.0 0.0 0.00 0.00 0.00 72 1013.4
20260508061804 46 157 0.0 0.0 0.00 0.00 0.00 71 1013.6
20260508061301 46 174 0.0 0.0 0.00 0.00 0.00 72 1013.6
20260508060758 46 202 0.0 0.0 0.00 0.00 0.00 72 1013.6
20260508060256 46 162 0.0 0.0 0.00 0.00 0.00 72 1013.7
20260508055751 46 157 0.0 1.0 0.00 0.00 0.00 72 1013.4
20260508055248 46 197 0.0 1.0 0.00 0.00 0.00 72 1013.7
20260508054744 46 169 0.0 0.0 0.00 0.00 0.00 73 1013.6
20260508054243 46 152 0.0 0.0 0.00 0.00 0.00 73 1013.8
20260508053740 46 170 0.0 0.0 0.00 0.00 0.00 73 1013.5
20260508053237 46 188 0.0 0.0 0.00 0.00 0.00 73 1013.7
20260508052734 45 178 1.0 2.0 0.00 0.00 0.00 74 1013.4
20260508052231 45 181 0.0 0.0 0.00 0.00 0.00 74 1013.8
20260508051727 45 178 0.0 0.0 0.00 0.00 0.00 73 1013.6
20260508051223 45 186 0.0 0.0 0.00 0.00 0.00 73 1013.7
20260508050719 46 164 0.0 1.0 0.00 0.00 0.00 73 1013.8
20260508050217 46 189 0.0 0.0 0.00 0.00 0.00 73 1013.8
20260508045713 46 191 1.0 2.0 0.00 0.00 0.00 73 1013.6
20260508045211 45 189 0.0 0.0 0.00 0.00 0.00 73 1013.6
20260508044708 45 198 0.0 0.0 0.00 0.00 0.00 73 1013.5
20260508044204 46 176 0.0 0.0 0.00 0.00 0.00 73 1013.8
20260508043700 46 186 0.0 0.0 0.00 0.00 0.00 73 1013.6
20260508043159 46 196 0.0 0.0 0.00 0.00 0.00 73 1013.9
20260508042654 46 186 0.0 0.0 0.00 0.00 0.00 73 1013.7
20260508042152 46 177 0.0 0.0 0.00 0.00 0.00 73 1013.7
20260508041648 46 171 0.0 0.0 0.00 0.00 0.00 73 1013.6
20260508041145 46 200 0.0 0.0 0.00 0.00 0.00 73 1013.8
20260508040641 45 174 0.0 0.0 0.00 0.00 0.00 73 1013.8
20260508040139 45 180 0.0 0.0 0.00 0.00 0.00 74 1013.7
20260508035636 45 181 0.0 0.0 0.00 0.00 0.00 74 1013.8
20260508035134 45 179 0.0 0.0 0.00 0.00 0.00 74 1013.9
20260508034630 45 171 0.0 0.0 0.00 0.00 0.00 74 1013.7
20260508034127 45 174 0.0 0.0 0.00 0.00 0.00 74 1013.7
20260508033624 45 174 0.0 0.0 0.00 0.00 0.00 74 1013.6
20260508033123 45 175 1.0 1.0 0.00 0.00 0.00 74 1013.6
20260508032619 45 167 0.0 1.0 0.00 0.00 0.00 74 1013.5
20260508032117 46 175 0.0 0.0 0.00 0.00 0.00 74 1013.7
20260508031614 46 180 0.0 0.0 0.00 0.00 0.00 73 1013.6
20260508031110 46 187 1.0 1.0 0.00 0.00 0.00 73 1013.3
20260508030606 46 172 1.0 1.0 0.00 0.00 0.00 73 1013.6
20260508030104 47 177 0.0 1.0 0.00 0.00 0.00 72 1013.6
20260508025600 47 181 0.0 0.0 0.00 0.00 0.00 72 1013.8
20260508025057 47 162 0.0 1.0 0.00 0.00 0.00 71 1013.7
20260508024553 47 179 0.0 0.0 0.00 0.00 0.00 70 1013.7
20260508024050 47 176 0.0 0.0 0.00 0.00 0.00 70 1013.8
20260508023547 47 176 0.0 0.0 0.00 0.00 0.00 70 1013.8
20260508023044 47 175 0.0 0.0 0.00 0.00 0.00 70 1013.7
20260508022540 47 177 0.0 0.0 0.00 0.00 0.00 70 1013.7
20260508022037 47 177 0.0 0.0 0.00 0.00 0.00 69 1013.8
20260508021532 48 181 0.0 0.0 0.00 0.00 0.00 70 1013.9
20260508021028 48 183 0.0 0.0 0.00 0.00 0.00 70 1014.0
20260508020527 49 175 0.0 1.0 0.00 0.00 0.00 68 1013.6
20260508020024 49 177 0.0 0.0 0.00 0.00 0.00 67 1013.6
20260508015521 49 182 0.0 0.0 0.00 0.00 0.00 65 1013.8
20260508015018 49 182 0.0 0.0 0.00 0.00 0.00 65 1013.6
20260508014515 49 181 0.0 0.0 0.00 0.00 0.00 64 1013.5
20260508014011 49 181 0.0 0.0 0.00 0.00 0.00 65 1013.5
20260508013507 49 179 0.0 0.0 0.00 0.00 0.00 64 1013.6
20260508013005 50 181 0.0 0.0 0.00 0.00 0.00 64 1013.5
20260508012501 50 182 0.0 0.0 0.00 0.00 0.00 63 1013.7
20260508011959 50 184 0.0 0.0 0.00 0.00 0.00 62 1013.6
20260508011457 50 182 0.0 0.0 0.00 0.00 0.00 61 1013.3
20260508010954 50 180 0.0 0.0 0.00 0.00 0.00 62 1013.3
20260508010451 50 181 0.0 0.0 0.00 0.00 0.00 62 1013.5
20260508005948 50 183 0.0 0.0 0.00 0.00 0.00 63 1013.4
20260508005444 50 180 0.0 0.0 0.00 0.00 0.00 63 1013.2
20260508004941 50 182 0.0 0.0 0.00 0.00 0.00 63 1013.4
20260508004437 50 178 0.0 0.0 0.00 0.00 0.00 62 1013.5
20260508003933 51 178 0.0 0.0 0.00 0.00 0.00 61 1013.1
20260508003430 52 178 0.0 0.0 0.00 0.00 0.00 60 1013.3
20260508002927 52 180 0.0 0.0 0.00 0.00 0.00 59 1013.3
20260508002424 53 177 0.0 0.0 0.00 0.00 0.00 58 1013.1
20260508001920 54 182 0.0 0.0 0.00 0.00 0.00 57 1013.3
20260508001418 54 194 0.0 1.0 0.00 0.00 0.00 56 1013.2
20260508000914 55 189 0.0 0.0 0.00 0.00 0.00 54 1013.0
20260508000412 55 214 1.0 1.0 0.00 0.00 0.00 52 1013.3
20260507235906 55 183 0.0 0.0 0.00 0.00 0.00 50 1012.8
20260507235403 55 208 1.0 1.0 0.00 0.00 0.00 50 1013.0
20260507234900 55 111 1.0 1.0 0.00 0.00 0.00 51 1012.8
20260507234359 56 159 2.0 2.0 0.00 0.00 0.00 51 1012.8
20260507233854 56 249 2.0 2.0 0.00 0.00 0.00 50 1012.7
20260507233351 57 235 1.0 1.0 0.00 0.00 0.00 48 1012.9
20260507232849 58 317 1.0 2.0 0.00 0.00 0.00 48 1012.7
20260507232345 58 233 2.0 2.0 0.00 0.00 0.00 47 1012.8
20260507231843 58 162 0.0 1.0 0.00 0.00 0.00 49 1012.8
20260507231339 57 308 3.0 3.0 0.00 0.00 0.00 49 1012.9
20260507230835 57 355 5.0 6.0 0.00 0.00 0.00 49 1012.9
20260507230328 59 96 3.0 5.0 0.00 0.00 0.00 47 1012.8
20260507225827 59 234 3.0 3.0 0.00 0.00 0.00 46 1012.9
20260507225324 58 106 4.0 7.0 0.00 0.00 0.00 48 1012.9
20260507224820 58 260 5.0 7.0 0.00 0.00 0.00 48 1012.9
20260507224317 58 59 3.0 6.0 0.00 0.00 0.00 49 1012.9
20260507223813 59 76 3.0 3.0 0.00 0.00 0.00 46 1012.8
20260507223309 59 180 2.0 3.0 0.00 0.00 0.00 48 1012.8
20260507222807 59 304 3.0 5.0 0.00 0.00 0.00 49 1013.1
20260507222306 59 328 4.0 5.0 0.00 0.00 0.00 47 1013.2
20260507221800 59 308 4.0 6.0 0.00 0.00 0.00 49 1013.1
20260507221256 59 306 4.0 6.0 0.00 0.00 0.00 49 1012.8
20260507220752 59 26 2.0 2.0 0.00 0.00 0.00 51 1012.9
20260507220251 58 333 4.0 5.0 0.00 0.00 0.00 50 1013.1
20260507215747 58 210 1.0 1.0 0.00 0.00 0.00 50 1012.9
20260507215244 58 316 3.0 5.0 0.00 0.00 0.00 50 1013.0
20260507214741 59 8 7.0 9.0 0.00 0.00 0.00 50 1013.1
20260507214238 58 51 2.0 3.0 0.00 0.00 0.00 51 1013.1
20260507213728 58 242 6.0 8.0 0.00 0.00 0.00 51 1012.8
20260507213225 58 318 3.0 5.0 0.00 0.00 0.00 51 1012.9
20260507212721 58 354 7.0 9.0 0.00 0.00 0.00 50 1013.0
20260507212218 58 260 7.0 9.0 0.00 0.00 0.00 50 1012.7
20260507211715 59 93 3.0 3.0 0.00 0.00 0.00 51 1012.8
20260507211210 59 331 6.0 8.0 0.00 0.00 0.00 49 1012.9
20260507210708 58 329 3.0 3.0 0.00 0.00 0.00 53 1013.0
20260507210205 58 22 2.0 2.0 0.00 0.00 0.00 51 1012.7
20260507205701 58 338 6.0 7.0 0.00 0.00 0.00 51 1012.8
20260507205158 58 330 6.0 8.0 0.00 0.00 0.00 53 1012.8
20260507204654 58 277 4.0 5.0 0.00 0.00 0.00 51 1012.7
20260507204152 58 227 4.0 6.0 0.00 0.00 0.00 50 1012.5
20260507203650 57 354 3.0 3.0 0.00 0.00 0.00 54 1012.8
20260507203147 57 57 5.0 7.0 0.00 0.00 0.00 51 1012.6
20260507202642 59 254 3.0 3.0 0.00 0.00 0.00 52 1012.5
20260507202139 59 276 5.0 9.0 0.00 0.00 0.00 52 1012.6
20260507201634 59 358 7.0 10.0 0.00 0.00 0.00 52 1012.8
20260507201131 58 296 4.0 6.0 0.00 0.00 0.00 52 1012.6
20260507200627 58 337 3.0 5.0 0.00 0.00 0.00 51 1012.7
20260507200123 58 263 7.0 8.0 0.00 0.00 0.00 50 1012.8
20260507195620 58 359 7.0 9.0 0.00 0.00 0.00 51 1012.8
20260507195118 58 339 9.0 13.0 0.00 0.00 0.00 50 1012.9
20260507194614 58 336 7.0 10.0 0.00 0.00 0.00 50 1012.9
20260507194109 59 40 7.0 9.0 0.00 0.00 0.00 51 1012.9
20260507193607 59 2 3.0 3.0 0.00 0.00 0.00 55 1012.7
20260507193104 59 46 4.0 5.0 0.00 0.00 0.00 50 1013.1
20260507192600 59 337 4.0 5.0 0.00 0.00 0.00 52 1012.9
20260507192057 58 188 3.0 3.0 0.00 0.00 0.00 51 1012.9
20260507191552 58 275 4.0 6.0 0.00 0.00 0.00 52 1013.0
20260507191050 58 294 3.0 5.0 0.00 0.00 0.00 54 1012.8
20260507190547 59 344 4.0 7.0 0.00 0.00 0.00 53 1013.0
20260507190046 58 344 4.0 6.0 0.00 0.00 0.00 53 1012.9
20260507185544 59 162 4.0 5.0 0.00 0.00 0.00 53 1012.9
20260507185040 58 253 5.0 7.0 0.00 0.00 0.00 52 1013.1
20260507184538 58 204 2.0 3.0 0.00 0.00 0.00 57 1013.1
20260507184036 58 286 8.0 9.0 0.00 0.00 0.00 53 1012.9
20260507183531 58 351 3.0 5.0 0.00 0.00 0.00 57 1013.0
20260507183029 57 137 1.0 2.0 0.00 0.00 0.00 57 1013.0
20260507182525 57 132 1.0 2.0 0.00 0.00 0.00 59 1013.2
20260507182021 58 236 6.0 8.0 0.00 0.00 0.00 53 1013.1
20260507181518 58 244 2.0 3.0 0.00 0.00 0.00 57 1013.0
20260507181014 57 223 3.0 3.0 0.00 0.00 0.00 58 1013.3
20260507180511 57 277 4.0 6.0 0.00 0.00 0.00 54 1013.3
20260507180008 57 241 2.0 2.0 0.00 0.00 0.00 57 1013.0
20260507175504 57 211 3.0 3.0 0.00 0.00 0.00 59 1013.1
20260507175002 57 276 4.0 5.0 0.00 0.00 0.00 56 1013.4
20260507174459 57 267 3.0 3.0 0.00 0.00 0.00 54 1013.5
20260507173956 57 228 5.0 7.0 0.00 0.00 0.00 56 1013.4
20260507173453 56 279 6.0 10.0 0.00 0.00 0.00 52 1013.6
20260507172950 56 305 4.0 7.0 0.00 0.00 0.00 54 1013.6
20260507172446 56 295 4.0 6.0 0.00 0.00 0.00 56 1013.5
20260507171943 57 312 6.0 9.0 0.00 0.00 0.00 55 1013.5
20260507171438 56 18 2.0 3.0 0.00 0.00 0.00 54 1013.9